Miscellaneous Local Product
Issued by NWS North Platte, NE

Home | Current Version | Previous Version | Graphics & Text | Print | Product List | Glossary On
Versions: 1 2 3 4 5 6 7 8 9 10 11 12 13 14 15 16 17 18 19 20 21 22 23 24 25 26 27 28 29 30 31 32 33 34 35 36 37 38 39 40 41 42 43 44 45 46 47 48 49 50
000
AXUS43 KLBF 301310
MISLBF


WESTERN AND NORTH CENTRAL NEBRASKA HOURLY WEATHER ROUNDUP
NATIONAL WEATHER SERVICE NORTH PLATTE NE
700 AM CST FRI JAN 30 2015

***STATIONS NOT REPORTING VARIABLES SUCH AS SKY/WEATHER OR
PRESSURE ARE PROVIDED BY THE NEBRASKA DEPARTMENT OF
ROADS...RAWS...AND APRS NETWORKS...AND ARE NOT UNDER
NATIONAL WEATHER SERVICE QUALITY CONTROL***

...OBSERVATIONS IN AND NEAR THE EASTERN PANHANDLE OF NEBRASKA...

CITY           SKY/WX    TMP DP  RH WIND       PRES   REMARKS
PINE RIDGE     MOCLDY    32  19  58 S15       30.22F WCI  22
CHADRON        CLOUDY    33  19  56 SW5       30.22S WCI  29
ALLIANCE       CLOUDY    25  21  85 SE7       30.23F WCI  17
SIDNEY         CLOUDY    27  21  78 S3        30.24F
WHITECLAY        N/A     30  18  60 S14         N/A  WCI  19
CRESCENT LAKE    N/A     25  20  79 S6          N/A  WCI  18
LISCO            N/A     32  18  55 NE8         N/A  WCI  25
LEWELLEN         N/A     30  22  73 S8          N/A  WCI  22
$$

...OBSERVATIONS IN NORTH CENTRAL NEBRASKA...

CITY           SKY/WX    TMP DP  RH WIND       PRES   REMARKS
VALENTINE      MOCLDY    23  17  78 CALM      30.30F
THEDFORD       MOCLDY    30  22  73 S5        30.33S WCI  25
AINSWORTH      MOCLDY    24  20  83 S9        30.32F WCI  14
O`NEILL        CLEAR     21  20  94 S8        30.40F WCI  11
ORD            PTCLDY    21  17  84 S6        30.42F WCI  13
BROKEN BOW     MOCLDY    22  18  85 SE7       30.38F WCI  13
BROWNLEE         N/A     25  18  77 S9          N/A  WCI  15
SPRINGVIEW       N/A     22  19  89 CALM        N/A
BREWSTER         N/A     25  23  93 SE5         N/A  WCI  19
ROSE             N/A     28  28 100 E10         N/A  WCI  18
NEWPORT          N/A     30  28  92 S10         N/A  WCI  21
SARGENT          N/A     21  19  93 CALM        N/A
COMSTOCK         N/A     27  25  92 S12         N/A  WCI  17
CHAMBERS         N/A     21  18  88 S8          N/A  WCI  11
EWING            N/A     19  17  93 S3          N/A
$$

...OBSERVATIONS IN SOUTHWEST NEBRASKA AND FAR NORTHEAST COLORADO...

CITY           SKY/WX    TMP DP  RH WIND       PRES   REMARKS
WRAY           FAIR      32  24  73 E3        30.29F
IMPERIAL       CLOUDY    26  20  77 S6        30.32F WCI  19
OGALLALA       CLOUDY    26  22  84 CALM      30.31F
NORTH PLATTE   CLOUDY    20  16  84 E6        30.36F WCI  12
MCCOOK         CLOUDY    22  17  81 CALM      30.39S
LEXINGTON      MOCLDY    25  20  83 SE7       30.41S WCI  17
BRADY            N/A     22  17  82 CALM        N/A
GOTHENBURG       N/A     20  15  79 E3          N/A
CALLAWAY         N/A     25  20  82 S6          N/A  WCI  18
$$

...NORTH PLATTE AREA...

CITY           SKY/WX    TMP DP  RH WIND       PRES   REMARKS
AIRPORT        CLOUDY    20  16  84 E6        30.36F WCI  12
DOWNTOWN         N/A     22  18  85 CALM        N/A
$$

...SOME WEATHER OBSERVATIONS FROM AROUND THE REGION...

CITY           SKY/WX    TMP DP  RH WIND       PRES   REMARKS
DENVER         CLOUDY    31  24  75 W8        30.20S WCI  23
LARAMIE        CLOUDY    27  22  81 CALM      30.20F
CHEYENNE       CLOUDY    28  23  81 W7        30.19F WCI  21
SCOTTSBLUFF    CLOUDY    28  22  78 E7        30.23F WCI  21
RAPID CITY     MOCLDY    21  15  78 N3        30.18F
PIERRE         CLEAR     21  18  88 SE10      30.27F WCI  10
WINNER         FAIR      27  20  75 S16       30.31F WCI  15
SIOUX FALLS    PTCLDY    19  15  84 S7        30.46S WCI  10
OMAHA          PTCLDY    22  16  78 CALM      30.53S
GRAND ISLAND   PTCLDY    21  18  88 S7        30.47F WCI  12
KANSAS CITY    PTCLDY    23  19  85 NE3       30.53R
WICHITA        CLOUDY    29  22  75 CALM      30.53R
HAYS           MOCLDY    19   9  63 CALM      30.45F
LIBERAL        CLOUDY    36  25  64 S6        30.46S WCI  31
GOODLAND       CLOUDY    30  23  75 S14       30.33F WCI  19
$$



USA.gov is the U.S. government's official web portal to all federal, state and local government web resources and services.